Погода в Дубровке

Россия / Томская область     56°43′44″N   86°26′33″E
темп.,
°C
ветер,
м/с
пор.,
м/с
влажн.,
%
обл.,
%
осадки,
мм/ч
давл.,
гПа
погр.,
м
24 октября, вс
вс2401:00+4юз91796100 3.7 1011987
04:00+6юз91783100 0.1 1011892
07:00+6юз91783100 0.2 1010828
10:00+7юз91883100 0.2 10101247
13:00+8зюз91678100 0.4 10101420
16:00+8зюз915737 0.4 10121175
19:00+7зюз7137144 0.4 1015938
22:00+6зюз613785 0.0 1017522
25 октября, пн
пн2501:00+4юз51188100 0.0 1018316
04:00+5ююз51193100 0.0 1017301
07:00+7ююз61393100 0.5 1015483
10:00+7ююз81682100 0.3 1012683
13:00+10юз101768100 0.3 10091082
16:00+10юз91761100 0.0 10081186
19:00+8зюз91764100 0.0 10101151
22:00+7з9156789 0.0 10131312
26 октября, вт
вт2601:00+4з5107478 0.0 1017429
04:00+2з2289100 0.0 101845
07:00+2юв2388100 0.0 101779
10:00+4юв4881100 0.0 1014288
13:00+5ююв51381100 0.6 1010535
16:00+8ю61361100 0.1 1005624
19:00+8ююз71658100 0.1 1002684
22:00+9юз91751100 0.0 1001885
27 октября, ср
ср2701:00+6зюз81590100 0.1 10031233
04:00+3зюз91570100 0.3 10081643
07:00−1з9146947 0.4 10141142
10:00−1зюз813665 0.0 10181004
13:00+1з810545 0.0 10201270
16:00+1зюз695024 0.0 10201628
19:00−1зюз4106174 0.0 1022364
22:00−1зюз51062100 0.1 1023607
28 октября, чт
чт2801:00−2зюз5106936 0.1 1025453
04:00−3зюз49755 0.0 1027349
07:00−4юз48785 0.0 1028267
10:00−2юз4871100 0.0 1029474
13:000юз575699 0.0 10291118
16:00+1юз585765 0.0 10281036
19:00−1ююз5126699 0.0 1028360
22:00−1ююз61457100 0.0 1026569